Regional Weather Roundup
Issued by NWS

Home | Current Version | Previous Version | Text Only | Print | Product List | Glossary Off
Versions: 1 2 3 4 5 6 7 8 9 10 11 12 13 14 15 16 17 18 19 20 21 22 23 24 25 26 27 28 29 30 31 32 33 34 35 36 37 38 39 40 41 42 43 44 45 46 47 48 49 50

000
ASUS43 KOAX 162202
RWRNE

WEATHER ROUNDUP FOR NEBRASKA
NATIONAL WEATHER SERVICE OMAHA NE
400 PM CST SAT DEC 16 2017

NOTES: SATELLITE DATA IS BEING USED TO AUGMENT CLOUD COVER ABOVE
       12000 FEET.
       "FAIR" INDICATES FEW OR NO CLOUDS BELOW 12,000 FEET WITH NO
       SIGNIFICANT WEATHER AND/OR OBSTRUCTIONS TO VISIBILITY.


NEZ001>004-019>022-054>056-162300-
NEBRASKA PANHANDLE

CITY           SKY/WX    TMP DP  RH WIND       PRES   REMARKS
SCOTTSBLUFF    CLOUDY    39  30  70 NE15      29.88R WCI  31
ALLIANCE       CLOUDY    35  29  78 NE14      29.88R WCI  26
CHADRON        CLOUDY    38  27  64 NE12      29.93R WCI  30
GORDON         CLOUDY    36  30  79 NE9       29.91R WCI  29
KIMBALL        SUNNY     40  26  56 NE10G16   29.84R WCI  33
SIDNEY         SUNNY     40  26  57 NE18      29.84R WCI  31
$$

NEZ057>060-069>072-079>082-162300-
SOUTHWEST NEBRASKA

CITY           SKY/WX    TMP DP  RH WIND       PRES   REMARKS
NORTH PLATTE   CLOUDY    44  29  55 NE17G24   29.87R
IMPERIAL       CLOUDY    47  29  49 NE21G28   29.82R
LEXINGTON      CLOUDY    49  31  49 NE18G25   29.84S
MCCOOK         CLOUDY    51  27  39 NE23      29.79R
OGALLALA       CLOUDY    42  31  64 NE17      29.86R
$$

NEZ005>010-023>029-035>040-094-162300-
NORTH CENTRAL NEBRASKA

CITY           SKY/WX    TMP DP  RH WIND       PRES   REMARKS
VALENTINE      CLOUDY    40  32  73 N9        29.94R WCI  34
AINSWORTH      CLOUDY    38  34  82 N9        29.92R WCI  32
BROKEN BOW     CLEAR     44  30  57 N13       29.88R
O`NEILL        CLOUDY    41  34  76 N12       29.92R
ORD            PTCLDY    46  33  60 N12       29.88R
THEDFORD       CLOUDY    39  33  79 NE14      29.91R WCI  31
$$

NEZ041-046>049-061>064-073>077-083>087-162300-
SOUTH CENTRAL NEBRASKA

CITY           SKY/WX    TMP DP  RH WIND       PRES   REMARKS
GRAND ISLAND   CLOUDY    48  32  53 NE17      29.86R
AURORA         CLOUDY    50  31  49 NE16      29.86R
HASTINGS       CLOUDY    51  25  36 NE17      29.83R
HEBRON         CLEAR     55  22  27 E9        29.83R
HOLDREGE       CLOUDY    51  28  41 NE21      29.82R
KEARNEY        CLOUDY    49  31  49 NE21      29.84R
$$

NEZ011>018-030>034-042>045-162300-
NORTHEAST NEBRASKA

CITY           SKY/WX    TMP DP  RH WIND       PRES   REMARKS
NORFOLK        CLOUDY    45  32  60 N12       29.89R
ALBION         PTCLDY    45  32  60 N12       29.90R
BLAIR          CLEAR     50  29  43 NE6       29.87R
COLUMBUS       CLOUDY    50  31  48 NE10      29.89R
FREMONT        PTCLDY    51  27  39 N6        29.88R
TEKAMAH        CLEAR     50  28  42 N9        29.88R
WAYNE          PTCLDY    45  32  59 N9        29.89R
$$

NEZ050>053-065>068-078-088>093-162300-
SOUTHEAST NEBRASKA

CITY           SKY/WX    TMP DP  RH WIND       PRES   REMARKS
LINCOLN        CLEAR     54  25  32 NE13      29.87R
OMAHA EPPLEY   PTCLDY    52  28  39 NW6       29.87R
BEATRICE       CLEAR     54  25  32 E3        29.85R
FALLS CITY     CLEAR     55  26  32 SE3       29.85R
NEBRASKA CITY  CLEAR     52  26  35 NE3       29.87R
PLATTSMOUTH    CLEAR     53  26  35 S3        29.87R
$$

NEZ044-045-051>053-067-162300-
OMAHA AREA

CITY           SKY/WX    TMP DP  RH WIND       PRES   REMARKS
OMAHA EPPLEY   PTCLDY    52  28  39 NW6       29.87R
BLAIR          CLEAR     50  29  43 NE6       29.87R
FREMONT        PTCLDY    51  27  39 N6        29.88R
MILLARD        CLEAR     53  28  38 CALM      29.87R
OFFUTT AFB     CLEAR     52  26  35 N5        29.86R
PLATTSMOUTH    CLEAR     53  26  35 S3        29.87R
WAHOO          FAIR      52  27  38 NE7       29.87R
$$




USA.gov is the U.S. government's official web portal to all federal, state and local government web resources and services.